Effective Sunday, March 17, 2024, the National Weather Service National Data Buoy Center will discontinue its Dial-A-Buoy Interactive Voice Response system. For more information, see Service Change Notice 24-06 (PDF).

Station KP59 - Copper Harbor, MI Image indicating link to RSS feed of recent meteorological observations for station KP59


Conditions at KP59 as of
(3:51 am EST)
0851 GMT on 02/28/2024:
     

Click on the graph icon in the table below to see a time series plot of the last five days of that observation.

5-day plot - Wind Direction Wind Direction (WDIR):NNE ( 20 deg true )
5-day plot - Wind Speed Wind Speed (WSPD): 25.1 kts
5-day plot - Wind Gust Wind Gust (GST): 41.0 kts
5-day plot - Atmospheric Pressure Atmospheric Pressure (PRES):29.61 in
5-day plot - Air Temperature Air Temperature (ATMP): 12.0 °F
5-day plot - Dew Point Dew Point (DEWP): 9.0 °F
5-day plot -  Wind Speed, Wind Gust and Atmospheric Pressure Combined plot of Wind Speed, Gust, and Air Pressure
Previous observations
TIME
(EST)
5-day plot - Wind Direction
WDIR
 
5-day plot - Wind Speed
WSPD
kts
5-day plot - Wind Gust
GST
kts
5-day plot - Wave Height
WVHT
ft
5-day plot - Dominant Wave Period
DPD
sec
5-day plot - Average Wave Period
APD
sec
5-day plot - Mean Wave Direction
MWD
 
5-day plot - Atmospheric Pressure
PRES
in
5-day plot - Pressure Tendency
PTDY
in
5-day plot - Air Temperature
ATMP
°F
5-day plot - Water Temperature
WTMP
°F
5-day plot - Dew Point
DEWP
°F
5-day plot - Salinity
SAL
psu
5-day plot - Visibility
VIS
nmi
5-day plot - Tide (above MLLW)
TIDE
ft
2024-02-28 02:51 amNNE 26.0 41.0----29.61- 12.0- 9.0---
2024-02-28 01:51 amNNE 27.0 38.1----29.61- 12.9- 9.0---
2024-02-28 12:51 amNNE 26.0 39.0----29.59- 14.0- 10.9---
2024-02-27 11:51 pmNNE 27.0 35.0----29.58- 16.0- 12.0---
2024-02-27 10:51 pmNNE 25.1 33.0----29.54- 18.0- 15.1---
2024-02-27 09:51 pmNNE 22.0 29.9----29.54- 19.0- 16.0---
2024-02-27 08:51 pmNNE 22.9 33.0----29.49- 19.9- 18.0---
2024-02-27 07:51 pmNNE 25.1 31.1----29.49- 23.0- 21.0---
2024-02-27 06:51 pmNNE 22.9 32.1----29.44- 26.1- 24.1---
2024-02-27 05:51 pmNNE 22.9 29.9----29.37- 28.9- 26.1---
2024-02-27 04:51 pm NE 15.9 28.0----29.33- 35.1- 30.0---
2024-02-27 03:51 pmENE 15.9-----29.30- 36.0- 32.0---
2024-02-27 02:51 pm E 6.0-----29.27- 37.9- 33.1---
2024-02-27 01:51 pm E 7.0-----29.27- 37.0- 34.0---
2024-02-27 12:51 pm E 4.1-----29.29- 39.0- 35.1---
2024-02-27 11:51 amESE 7.0-----29.30- 39.9- 35.1---
2024-02-27 10:51 amESE 8.0-----29.30- 39.0- 34.0---
2024-02-27 09:51 am- 0.0-----29.31- 41.0- 34.0---
2024-02-27 08:51 am- 0.0-----29.34- 35.1- 30.0---
2024-02-27 07:51 amESE 5.1-----29.34- 32.0- 28.9---
2024-02-27 05:51 am- 4.1-----29.34- 36.0- 28.9---
2024-02-27 04:51 am- 5.1-----29.36- 37.9- 30.9---
2024-02-27 03:51 am SW 8.9-----29.37- 37.0- 30.9---